Location: Home
(42.5358°N, 72.7383°W)
Time: 11:47:44
(UTC-05:00)

BlueWalker 3 - Pass Details

Date: 30 November 2023
Orbit: 485 x 499 km, 53.2° (Epoch: 01 March)

Event Time Altitude Azimuth Distance (km) Brightness Sun altitude
Exits shadow 04:39:45 21° 27° (NNE) 1,170 3.9 -25.2°
Drops below altitude 10° 04:42:16 10° 67° (ENE) 1,694 5.4 -24.7°
Enters shadow 05:38:45 -71° 291° (WNW) 12,579 8.9 -14.6°
Maximum altitude 06:18:10 73° 36° (NE) 519 2.0 -7.7°
